Location: Igri�s
(42.2144°N, 0.4320°W)
Time: 17:31:34
(UTC+00:00)

BREEZE-M DEB (TANK) - Pass Details

Date: 13 August 2020
Orbit: 279 x 20490 km, 49.2° (Epoch: 17 September)

Event Time Altitude Azimuth Distance (km) Brightness Sun altitude
Rises 19:53:08 0° 272° (W) 4,393 8.7 -9.0°
Reaches altitude 10° 19:57:42 10° 285° (WNW) 2,141 7.3 -9.7°
Maximum altitude 20:00:55 23° 342° (NNW) 890 4.5 -10.2°
Drops below altitude 10° 20:02:46 10° 41° (NE) 1,184 4.4 -10.5°
Enters shadow 20:03:50 - 56° (NE) 1,643 5.0 -10.7°
